| time (UTC) | temp C | wind direction | speed KPH | gust KPH | rain 1hr cm | rain 24hr cm | rain mn cm | humidity % | barometer mb |
| 20260510091150 | 17 | 217 | 6.4 | 24.1 | 0.00 | 1.02 | 0.30 | 85 | 1013.7 |
| 20260510090310 | 17 | 226 | 4.8 | 24.1 | 0.00 | 1.02 | 0.30 | 86 | 1013.7 |
| 20260510085349 | 17 | 217 | 8.0 | 24.1 | 0.00 | 1.02 | 0.30 | 86 | 1013.7 |
| 20260510084450 | 16 | 224 | 6.4 | 24.1 | 0.15 | 1.02 | 0.30 | 87 | 1013.8 |
| 20260510083550 | 16 | 235 | 6.4 | 19.3 | 0.15 | 1.02 | 0.30 | 88 | 1013.8 |
| 20260510082649 | 16 | 251 | 4.8 | 14.5 | 0.15 | 1.02 | 0.30 | 90 | 1013.7 |
| 20260510081750 | 16 | 227 | 4.8 | 14.5 | 0.15 | 1.02 | 0.30 | 90 | 1013.7 |
| 20260510080910 | 16 | 222 | 6.4 | 17.7 | 0.15 | 1.02 | 0.30 | 91 | 1013.7 |
| 20260510075950 | 16 | 209 | 8.0 | 22.5 | 0.15 | 1.02 | 0.30 | 90 | 1013.6 |
| 20260510075049 | 16 | 189 | 4.8 | 16.1 | 0.15 | 1.02 | 0.30 | 91 | 1013.5 |
| 20260510074150 | 16 | 210 | 4.8 | 16.1 | 0.03 | 0.89 | 0.15 | 91 | 1013.5 |
| 20260510073310 | 16 | 217 | 4.8 | 16.1 | 0.03 | 0.89 | 0.15 | 91 | 1013.5 |
| 20260510072349 | 16 | 221 | 3.2 | 14.5 | 0.03 | 0.89 | 0.15 | 91 | 1013.5 |
| 20260510071511 | 15 | 192 | 4.8 | 14.5 | 0.03 | 0.91 | 0.15 | 91 | 1013.5 |
| 20260510070549 | 15 | 207 | 6.4 | 14.5 | 0.03 | 0.91 | 0.15 | 91 | 1013.5 |
| 20260510065649 | 15 | 222 | 1.6 | 12.9 | 0.08 | 0.94 | 0.15 | 91 | 1013.4 |
| 20260510064749 | 15 | 205 | 3.2 | 8.0 | 0.15 | 0.94 | 0.15 | 91 | 1013.3 |
| 20260510063849 | 15 | 219 | 1.6 | 9.7 | 0.15 | 0.91 | 0.15 | 91 | 1013.3 |
| 20260510062949 | 15 | 224 | 1.6 | 12.9 | 0.15 | 0.91 | 0.15 | 91 | 1013.3 |
| 20260510062110 | 15 | 260 | 0.0 | 11.3 | 0.15 | 0.91 | 0.15 | 91 | 1013.4 |
| 20260510061149 | 15 | 222 | 0.0 | 8.0 | 0.15 | 0.91 | 0.15 | 90 | 1013.4 |
| 20260510060249 | 15 | 215 | 1.6 | 3.2 | 0.15 | 0.91 | 0.15 | 90 | 1013.3 |
| 20260510055349 | 15 | 216 | 1.6 | 9.7 | 0.05 | 0.84 | 0.05 | 89 | 1013.3 |
| 20260510054511 | 15 | 204 | 1.6 | 12.9 | 0.00 | 0.79 | 0.00 | 89 | 1013.2 |
| 20260510053549 | 15 | 232 | 0.0 | 12.9 | 0.00 | 0.79 | 0.00 | 89 | 1013.1 |
| 20260510052649 | 15 | 228 | 1.6 | 11.3 | 0.00 | 0.79 | 0.00 | 88 | 1013.0 |
| 20260510051749 | 15 | 241 | 0.0 | 12.9 | 0.00 | 0.79 | 0.00 | 88 | 1013.1 |
| 20260510050911 | 15 | 207 | 0.0 | 4.8 | 0.00 | 0.79 | 0.00 | 88 | 1013.0 |
| 20260510045949 | 15 | 205 | 0.0 | 8.0 | 0.00 | 0.79 | 0.00 | 88 | 1013.0 |
| 20260510045049 | 15 | 225 | 0.0 | 11.3 | 0.00 | 0.79 | 0.00 | 88 | 1013.0 |
| 20260510044149 | 15 | 233 | 1.6 | 6.4 | 0.00 | 0.79 | 0.00 | 88 | 1012.9 |
| 20260510043249 | 15 | 232 | 1.6 | 12.9 | 0.00 | 0.79 | 0.00 | 88 | 1012.9 |
| 20260510042349 | 15 | 231 | 1.6 | 12.9 | 0.00 | 0.79 | 0.00 | 87 | 1012.9 |
| 20260510041449 | 15 | 232 | 0.0 | 11.3 | 0.00 | 0.79 | 0.00 | 87 | 1012.8 |
| 20260510040549 | 16 | 0 | 0.0 | 0.0 | 0.00 | 0.79 | 0.00 | 87 | 1012.8 |
| 20260510035649 | 16 | 207 | 1.6 | 9.7 | 0.00 | 0.79 | 0.00 | 88 | 1012.8 |
| 20260510034749 | 16 | 194 | 1.6 | 11.3 | 0.00 | 0.79 | 0.00 | 88 | 1012.8 |
| 20260510033849 | 16 | 196 | 0.0 | 14.5 | 0.00 | 0.79 | 0.00 | 88 | 1012.9 |
| 20260510032949 | 16 | 196 | 0.0 | 8.0 | 0.00 | 0.79 | 0.00 | 88 | 1012.9 |
| 20260510032049 | 16 | 221 | 1.6 | 4.8 | 0.00 | 0.79 | 0.00 | 88 | 1012.8 |
| 20260510031210 | 16 | 208 | 1.6 | 12.9 | 0.00 | 0.79 | 0.00 | 88 | 1012.7 |
| 20260510030249 | 16 | 217 | 1.6 | 16.1 | 0.00 | 0.79 | 0.00 | 88 | 1012.7 |
| 20260510025349 | 16 | 197 | 1.6 | 9.7 | 0.00 | 0.79 | 0.00 | 87 | 1012.7 |
| 20260510024448 | 16 | 189 | 1.6 | 16.1 | 0.00 | 0.79 | 0.00 | 87 | 1012.7 |
| 20260510023548 | 16 | 193 | 1.6 | 16.1 | 0.00 | 0.79 | 0.00 | 88 | 1012.8 |
| 20260510022648 | 16 | 183 | 1.6 | 11.3 | 0.00 | 0.79 | 0.00 | 88 | 1012.9 |
| 20260510021748 | 16 | 196 | 0.0 | 11.3 | 0.00 | 0.79 | 0.00 | 88 | 1012.9 |
| 20260510020910 | 16 | 205 | 1.6 | 6.4 | 0.00 | 0.79 | 0.00 | 88 | 1012.9 |
| 20260510015948 | 16 | 194 | 1.6 | 8.0 | 0.00 | 0.79 | 0.00 | 88 | 1013.1 |
| 20260510015048 | 16 | 178 | 0.0 | 11.3 | 0.00 | 0.79 | 0.00 | 88 | 1013.2 |
| 20260510014148 | 16 | 178 | 0.0 | 8.0 | 0.00 | 0.79 | 0.00 | 88 | 1013.3 |
| 20260510013248 | 16 | 191 | 1.6 | 9.7 | 0.00 | 0.79 | 0.00 | 88 | 1013.4 |
| 20260510012348 | 16 | 217 | 1.6 | 11.3 | 0.00 | 0.79 | 0.00 | 88 | 1013.3 |
| 20260510011448 | 16 | 210 | 1.6 | 12.9 | 0.00 | 0.79 | 0.00 | 88 | 1013.3 |
| 20260510010548 | 16 | 230 | 0.0 | 6.4 | 0.00 | 0.79 | 0.00 | 88 | 1013.5 |
| 20260510005649 | 16 | 225 | 1.6 | 9.7 | 0.00 | 0.79 | 0.00 | 87 | 1013.6 |
| 20260510004748 | 16 | 208 | 1.6 | 11.3 | 0.00 | 0.79 | 0.00 | 87 | 1013.8 |
| 20260510003848 | 16 | 216 | 1.6 | 9.7 | 0.00 | 0.79 | 0.00 | 87 | 1013.8 |
| 20260510002948 | 16 | 215 | 0.0 | 8.0 | 0.00 | 0.79 | 0.00 | 87 | 1013.8 |
| 20260510002048 | 16 | 209 | 0.0 | 3.2 | 0.00 | 0.79 | 0.00 | 86 | 1013.9 |
| 20260510001209 | 16 | 204 | 1.6 | 8.0 | 0.00 | 0.79 | 0.00 | 86 | 1013.9 |
| 20260510000248 | 16 | 209 | 1.6 | 9.7 | 0.00 | 0.79 | 0.00 | 86 | 1014.0 |
| 20260509235348 | 16 | 196 | 0.0 | 9.7 | 0.00 | 0.79 | 0.00 | 86 | 1014.0 |
| 20260509234448 | 16 | 191 | 1.6 | 9.7 | 0.00 | 0.79 | 0.00 | 86 | 1014.1 |
| 20260509233548 | 16 | 180 | 1.6 | 12.9 | 0.00 | 0.79 | 0.00 | 86 | 1014.1 |
| 20260509232709 | 16 | 201 | 0.0 | 11.3 | 0.00 | 0.79 | 0.00 | 85 | 1014.1 |
| 20260509231748 | 16 | 211 | 1.6 | 12.9 | 0.00 | 0.79 | 0.00 | 85 | 1014.2 |
| 20260509230848 | 16 | 204 | 1.6 | 11.3 | 0.00 | 0.79 | 0.00 | 85 | 1014.2 |
| 20260509225948 | 16 | 186 | 0.0 | 14.5 | 0.00 | 0.79 | 0.00 | 85 | 1014.2 |
| 20260509225048 | 16 | 207 | 0.0 | 4.8 | 0.00 | 0.79 | 0.00 | 85 | 1014.3 |
| 20260509224148 | 16 | 186 | 1.6 | 1.6 | 0.00 | 0.79 | 0.00 | 85 | 1014.2 |
| 20260509223248 | 16 | 199 | 0.0 | 11.3 | 0.00 | 0.79 | 0.00 | 85 | 1014.3 |
| 20260509222409 | 16 | 218 | 0.0 | 8.0 | 0.00 | 0.79 | 0.00 | 86 | 1014.2 |
| 20260509221448 | 16 | 219 | 1.6 | 9.7 | 0.00 | 0.79 | 0.00 | 86 | 1014.3 |
| 20260509220548 | 16 | 230 | 1.6 | 12.9 | 0.00 | 0.79 | 0.00 | 86 | 1014.2 |
| 20260509215648 | 16 | 230 | 1.6 | 14.5 | 0.00 | 0.79 | 0.79 | 85 | 1014.3 |
| 20260509214748 | 16 | 227 | 1.6 | 11.3 | 0.00 | 0.79 | 0.79 | 85 | 1014.2 |
| 20260509213909 | 16 | 220 | 1.6 | 9.7 | 0.00 | 0.79 | 0.79 | 85 | 1014.3 |
| 20260509212948 | 16 | 234 | 3.2 | 11.3 | 0.00 | 0.79 | 0.79 | 86 | 1014.2 |
| 20260509212048 | 16 | 232 | 3.2 | 11.3 | 0.00 | 0.79 | 0.79 | 86 | 1014.1 |
| 20260509211147 | 16 | 228 | 1.6 | 9.7 | 0.03 | 0.79 | 0.79 | 87 | 1013.9 |
| 20260509210247 | 16 | 226 | 1.6 | 9.7 | 0.03 | 0.79 | 0.79 | 87 | 1013.8 |
| 20260509205348 | 16 | 217 | 3.2 | 9.7 | 0.03 | 0.79 | 0.79 | 87 | 1013.7 |
| 20260509204448 | 16 | 242 | 3.2 | 11.3 | 0.03 | 0.79 | 0.79 | 87 | 1013.6 |
| 20260509203547 | 16 | 235 | 3.2 | 9.7 | 0.03 | 0.79 | 0.79 | 86 | 1013.6 |
| 20260509202648 | 16 | 247 | 4.8 | 16.1 | 0.03 | 0.79 | 0.79 | 85 | 1013.5 |
| 20260509201747 | 16 | 229 | 4.8 | 16.1 | 0.03 | 0.79 | 0.79 | 84 | 1013.5 |
| 20260509200847 | 16 | 235 | 8.0 | 16.1 | 0.00 | 0.76 | 0.76 | 83 | 1013.3 |
| 20260509195947 | 16 | 234 | 6.4 | 16.1 | 0.00 | 0.76 | 0.76 | 82 | 1013.2 |
| 20260509195108 | 16 | 234 | 6.4 | 14.5 | 0.00 | 0.76 | 0.76 | 81 | 1013.1 |
| 20260509194208 | 16 | 250 | 6.4 | 19.3 | 0.00 | 0.76 | 0.76 | 80 | 1013.0 |
| 20260509193247 | 16 | 239 | 8.0 | 19.3 | 0.00 | 0.76 | 0.76 | 79 | 1012.6 |
| 20260509192347 | 17 | 241 | 9.7 | 19.3 | 0.00 | 0.76 | 0.76 | 78 | 1012.6 |
| 20260509191447 | 17 | 238 | 8.0 | 24.1 | 0.00 | 0.76 | 0.76 | 77 | 1012.6 |
| 20260509190608 | 17 | 236 | 8.0 | 22.5 | 0.00 | 0.76 | 0.76 | 77 | 1012.5 |
| 20260509185708 | 17 | 230 | 9.7 | 20.9 | 0.00 | 0.76 | 0.76 | 78 | 1012.4 |
| 20260509184747 | 17 | 237 | 9.7 | 20.9 | 0.00 | 0.76 | 0.76 | 80 | 1012.2 |
| 20260509183847 | 17 | 239 | 12.9 | 22.5 | 0.00 | 0.76 | 0.76 | 80 | 1012.1 |
| 20260509182947 | 18 | 239 | 14.5 | 38.6 | 0.00 | 0.76 | 0.76 | 76 | 1011.9 |
| 20260509182047 | 18 | 249 | 14.5 | 38.6 | 0.00 | 0.76 | 0.76 | 71 | 1011.8 |
| 20260509181208 | 19 | 248 | 16.1 | 32.2 | 0.00 | 0.76 | 0.76 | 69 | 1011.6 |
| 20260509180247 | 19 | 244 | 16.1 | 32.2 | 0.00 | 0.76 | 0.76 | 68 | 1011.5 |
| 20260509175347 | 19 | 242 | 14.5 | 27.4 | 0.00 | 0.76 | 0.76 | 68 | 1011.5 |
| 20260509174448 | 19 | 230 | 14.5 | 32.2 | 0.00 | 0.76 | 0.76 | 69 | 1011.5 |
| 20260509173609 | 19 | 230 | 14.5 | 30.6 | 0.00 | 0.76 | 0.76 | 68 | 1011.4 |
| 20260509172647 | 19 | 232 | 14.5 | 35.4 | 0.00 | 0.76 | 0.76 | 70 | 1011.3 |
| 20260509171747 | 19 | 229 | 14.5 | 35.4 | 0.00 | 0.76 | 0.76 | 72 | 1011.2 |
| 20260509170847 | 19 | 241 | 17.7 | 30.6 | 0.00 | 0.76 | 0.76 | 73 | 1011.2 |
| 20260509165947 | 20 | 242 | 17.7 | 33.8 | 0.00 | 0.76 | 0.76 | 68 | 1011.1 |
| 20260509165047 | 20 | 249 | 17.7 | 35.4 | 0.00 | 0.76 | 0.76 | 65 | 1010.9 |
| 20260509164147 | 20 | 241 | 16.1 | 32.2 | 0.00 | 0.76 | 0.76 | 64 | 1010.8 |
| 20260509163247 | 20 | 239 | 16.1 | 33.8 | 0.00 | 0.76 | 0.76 | 65 | 1010.8 |
| 20260509162347 | 20 | 236 | 16.1 | 40.2 | 0.00 | 0.76 | 0.76 | 65 | 1010.7 |
| 20260509161447 | 20 | 239 | 14.5 | 29.0 | 0.00 | 0.76 | 0.76 | 63 | 1010.6 |
| 20260509160547 | 20 | 245 | 12.9 | 32.2 | 0.00 | 0.76 | 0.76 | 62 | 1010.6 |
| 20260509155708 | 21 | 243 | 16.1 | 33.8 | 0.00 | 0.76 | 0.76 | 62 | 1010.5 |
| 20260509154747 | 20 | 243 | 16.1 | 33.8 | 0.00 | 0.76 | 0.76 | 62 | 1010.5 |
| 20260509153908 | 20 | 246 | 17.7 | 37.0 | 0.00 | 0.76 | 0.76 | 64 | 1010.4 |
| 20260509152947 | 20 | 239 | 14.5 | 32.2 | 0.00 | 0.76 | 0.76 | 62 | 1010.4 |
| 20260509152047 | 21 | 248 | 19.3 | 33.8 | 0.00 | 0.76 | 0.76 | 62 | 1010.3 |
| 20260509151146 | 20 | 240 | 16.1 | 32.2 | 0.00 | 0.76 | 0.76 | 62 | 1010.4 |
| 20260509150308 | 21 | 240 | 16.1 | 37.0 | 0.00 | 0.76 | 0.76 | 61 | 1010.3 |
| 20260509145346 | 21 | 239 | 14.5 | 30.6 | 0.00 | 0.76 | 0.76 | 60 | 1010.2 |
| 20260509144447 | 21 | 254 | 17.7 | 32.2 | 0.00 | 0.76 | 0.76 | 60 | 1010.3 |
| 20260509143546 | 20 | 239 | 19.3 | 35.4 | 0.00 | 0.76 | 0.76 | 62 | 1010.2 |
| 20260509142646 | 20 | 239 | 16.1 | 43.5 | 0.00 | 0.76 | 0.76 | 60 | 1010.2 |
| 20260509141747 | 21 | 245 | 12.9 | 33.8 | 0.00 | 0.76 | 0.76 | 62 | 1010.1 |
| 20260509140846 | 20 | 237 | 12.9 | 30.6 | 0.00 | 0.76 | 0.76 | 64 | 1010.0 |
| 20260509140007 | 20 | 240 | 16.1 | 33.8 | 0.00 | 0.76 | 0.76 | 65 | 1010.0 |
| 20260509135046 | 20 | 240 | 17.7 | 38.6 | 0.00 | 0.76 | 0.76 | 65 | 1010.0 |
| 20260509134146 | 20 | 246 | 17.7 | 30.6 | 0.00 | 0.76 | 0.76 | 68 | 1009.9 |
| 20260509133246 | 20 | 243 | 16.1 | 35.4 | 0.00 | 0.76 | 0.76 | 68 | 1009.9 |
| 20260509132407 | 19 | 245 | 12.9 | 37.0 | 0.13 | 0.76 | 0.76 | 73 | 1009.7 |
| 20260509131507 | 18 | 240 | 6.4 | 29.0 | 0.15 | 0.76 | 0.76 | 77 | 1009.7 |
| 20260509130547 | 18 | 227 | 4.8 | 22.5 | 0.53 | 0.76 | 0.76 | 86 | 1009.6 |
| 20260509125646 | 17 | 224 | 3.2 | 19.3 | 0.61 | 0.76 | 0.76 | 88 | 1009.6 |
| 20260509124746 | 17 | 226 | 6.4 | 20.9 | 0.61 | 0.76 | 0.76 | 90 | 1009.8 |
| 20260509123846 | 16 | 223 | 9.7 | 35.4 | 0.61 | 0.76 | 0.76 | 89 | 1009.9 |
| 20260509122946 | 15 | 225 | 6.4 | 35.4 | 0.64 | 0.76 | 0.76 | 89 | 1009.9 |
| 20260509122046 | 15 | 229 | 9.7 | 20.9 | 0.53 | 0.64 | 0.64 | 88 | 1009.7 |
| 20260509121146 | 15 | 260 | 12.9 | 35.4 | 0.41 | 0.51 | 0.51 | 85 | 1009.7 |
| 20260509120246 | 17 | 263 | 6.4 | 43.5 | 0.05 | 0.15 | 0.18 | 82 | 1010.0 |
| 20260509115346 | 17 | 245 | 8.0 | 24.1 | 0.05 | 0.15 | 0.15 | 86 | 1009.3 |
| 20260509114446 | 16 | 251 | 12.9 | 27.4 | 0.05 | 0.15 | 0.15 | 85 | 1009.3 |
| 20260509113546 | 16 | 261 | 14.5 | 40.2 | 0.05 | 0.15 | 0.15 | 82 | 1009.2 |
| 20260509112646 | 18 | 229 | 11.3 | 40.2 | 0.00 | 0.10 | 0.10 | 78 | 1009.3 |
| 20260509111746 | 18 | 201 | 14.5 | 29.0 | 0.00 | 0.10 | 0.10 | 80 | 1008.5 |
| 20260509110846 | 18 | 202 | 16.1 | 35.4 | 0.00 | 0.10 | 0.10 | 79 | 1009.0 |
| 20260509105946 | 18 | 198 | 14.5 | 38.6 | 0.00 | 0.10 | 0.10 | 78 | 1009.0 |
| 20260509105046 | 18 | 196 | 12.9 | 37.0 | 0.00 | 0.10 | 0.10 | 76 | 1009.0 |
| 20260509104146 | 18 | 205 | 16.1 | 29.0 | 0.00 | 0.10 | 0.10 | 74 | 1009.0 |
| 20260509103246 | 19 | 202 | 14.5 | 48.3 | 0.00 | 0.10 | 0.10 | 73 | 1009.1 |
| 20260509102346 | 19 | 200 | 9.7 | 35.4 | 0.00 | 0.10 | 0.10 | 75 | 1009.0 |
| 20260509101446 | 19 | 213 | 11.3 | 27.4 | 0.03 | 0.10 | 0.10 | 76 | 1008.8 |
| 20260509100546 | 18 | 209 | 11.3 | 35.4 | 0.05 | 0.10 | 0.10 | 79 | 1008.8 |
| 20260509095646 | 18 | 202 | 9.7 | 35.4 | 0.05 | 0.10 | 0.10 | 81 | 1008.6 |
| 20260509094746 | 17 | 203 | 12.9 | 32.2 | 0.05 | 0.10 | 0.10 | 83 | 1008.6 |
| 20260509093907 | 17 | 210 | 12.9 | 32.2 | 0.05 | 0.10 | 0.10 | 84 | 1008.6 |
| 20260509093007 | 17 | 205 | 12.9 | 32.2 | 0.05 | 0.10 | 0.10 | 86 | 1008.7 |
| 20260509092046 | 17 | 209 | 12.9 | 30.6 | 0.05 | 0.10 | 0.10 | 84 | 1008.7 |